Change the Weather History Date:

Friday, November 16, 2012

  Actual Average Record
Temperature  
Mean Temperature 68 °F -  
Max Temperature 80 °F 71 °F - ()
Min Temperature 57 °F 47 °F - ()
Cooling Degree Days 4    
Growing Degree Days 18 (Base 50)    
Moisture  
Dew Point 52 °F    
Average Humidity 57    
Maximum Humidity 77    
Minimum Humidity 41    
Precipitation  
Precipitation 0.00 in - - ()
Sea Level Pressure  
Sea Level Pressure 30.12 in    
Wind  
Wind Speed 2 mph ()    
Max Wind Speed 9 mph    
Max Gust Speed -    
Visibility 10.3 miles    
Events      
T = Trace of Precipitation, MM = Missing Value Source: Averaged Metar Reports

Daily Weather History Graph

Daily Weather History Graph

Search for Another Location

Airport or City:

Trip Planner

Search our weather history database for the weather conditions in past years. The results will help you decide how hot, cold, wet, or windy it might be!

Date:

Astronomy

Nov. 16, 2012 Rise Set
Actual Time 7:12 AM CST 6:04 PM CST
Civil Twilight 6:48 AM CST 6:29 PM CST
Nautical Twilight 6:20 AM CST 6:56 PM CST
Astronomical Twilight 5:52 AM CST 7:24 PM CST
Moon 10:04 AM CST (11/16) 9:10 PM CST (11/16)
Length of Visible Light 11h 40m
Length of Day
10h 52m
Waxing Crescent, 12% of the Moon is Illuminated
Nov 16
Waxing Crescent
Nov 20
First Quarter
Nov 28
Full
Dec 6
Last Quarter
Dec 13
New

Hourly Weather History & Observations

Time (CST) Temp. Dew Point Humidity Pressure Visibility Wind Dir Wind Speed Gust Speed Precip Events Conditions
2:45 AM 62 °F 54 °F 68% 29.99 in 6 mi WNW 2.2 mph - -  
5:48 AM 60 °F 54 °F 75% 30.06 in 6 mi SE 2.2 mph - -  
6:40 AM 57.2 °F 48.2 °F 72% 30.21 in 10.0 mi Calm Calm - N/A   Scattered Clouds
7:46 AM 55.4 °F 48.2 °F 77% 30.23 in 10.0 mi Calm Calm - N/A   Scattered Clouds
8:40 AM 62 °F 54 °F 69% 30.14 in 19 mi NNW 2.2 mph - -   Clear
8:42 AM 59.0 °F 50.0 °F 72% 30.11 in 10.0 mi Calm Calm - N/A   Partly Cloudy
9:50 AM 66.2 °F 50.0 °F 56% 30.27 in 8.0 mi Calm Calm - N/A   Partly Cloudy
10:44 AM 66.2 °F 51.8 °F 60% 30.27 in 8.0 mi Calm Calm - N/A   Scattered Clouds
11:45 AM 69.8 °F 51.8 °F 53% 30.12 in 8.0 mi Calm Calm - N/A   Scattered Clouds
11:50 AM 72 °F 57 °F 50% 30.14 in 19 mi NE 2.2 mph - -   Clear
12:40 PM 71.6 °F 51.8 °F 50% 30.22 in 8.0 mi ENE 6.9 mph - N/A   Scattered Clouds
1:40 PM 73.4 °F 50.0 °F 44% 30.19 in 8.0 mi ENE 6.9 mph - N/A   Scattered Clouds
2:43 PM 73.4 °F 51.8 °F 47% 29.99 in 8.0 mi NNE 4.6 mph - N/A   Mostly Cloudy
2:46 PM 78 °F 59 °F 43% 30.00 in 19 mi NNE 4.5 mph - -   Clear
3:41 PM 75.2 °F 51.8 °F 44% 30.15 in 10.0 mi East 6.9 mph - N/A   Mostly Cloudy
4:40 PM 77.0 °F 51.8 °F 41% 30.13 in 10.0 mi Calm Calm - N/A   Mostly Cloudy
5:44 PM 73.4 °F 50.0 °F 44% 29.98 in 10.0 mi ENE 9.2 mph - N/A   Mostly Cloudy
5:46 PM 75 °F 58 °F 46% 29.96 in 19 mi East 4.5 mph - -   Clear
6:40 PM 69.8 °F 50.0 °F 49% 30.15 in 10.0 mi ENE 5.8 mph - N/A   Mostly Cloudy
7:40 PM 68.0 °F 48.2 °F 49% 30.16 in 10.0 mi ENE 4.6 mph - N/A   Scattered Clouds
8:40 PM 68.0 °F 48.2 °F 49% 30.03 in 10.0 mi ENE 5.8 mph - N/A   Scattered Clouds
8:48 PM 69 °F 59 °F 62% 29.97 in 6 mi NE 4.5 mph - -  
9:41 PM 64.4 °F 48.2 °F 56% 30.19 in 10.0 mi Calm Calm - N/A   Scattered Clouds
10:40 PM 60.8 °F 48.2 °F 63% 30.22 in 10.0 mi Calm Calm - N/A   Scattered Clouds
11:40 PM 60.8 °F 48.2 °F 63% 30.09 in 10.0 mi Calm Calm - N/A   Scattered Clouds
11:48 PM 63 °F 55 °F 69% 30.02 in 6 mi NNE 2.2 mph - -